Regional Weather Roundup
Issued by NWS

Home | Current Version | Previous Version | Text Only | Print | Product List | Glossary Off
Versions: 1 2 3 4 5 6 7 8 9 10 11 12 13 14 15 16 17 18 19 20 21 22 23 24 25 26 27

000
ASUS45 KCYS 240210
RWRWY

WYOMING REGIONAL WEATHER ROUNDUP
NATIONAL WEATHER SERVICE CHEYENNE WY
800 PM MDT SUN JUL 23 2017

NOTE:  "FAIR" INDICATES FEW OR NO CLOUDS BELOW 12,000 FEET
WITH NO SIGNIFICANT WEATHER AND/OR OBSTRUCTIONS TO VISIBILITY.

WYZ001-240300-
YELLOWSTONE NATIONAL PARK

CITY           SKY/WX    TMP DP  RH WIND       PRES   REMARKS
LK YELLOWSTONE   N/A     71  33  24 VRB5      30.27S
W YELLOWSTONE  NOT AVBL

$$
WYZ002>013-054>058-071-098>099-240300-
NORTHERN WYOMING

CITY           SKY/WX    TMP DP  RH WIND       PRES   REMARKS
JACKSON        CLEAR     81  43  26 SW6       30.15S
CODY           FAIR      80  43  26 NE6       30.04F
GREYBULL       LGT RAIN  91  32  12 N17G29    29.89F
WORLAND        FAIR      86  42  21 N9        29.90S
SHERIDAN       FAIR      80  52  37 W7        29.92F
BUFFALO        FAIR      85  41  21 NW13      30.00S
GILLETTE       FAIR      89  41  18 SE13      29.94F
HULETT         FAIR      82  45  26 E9        29.98F
NEWCASTLE      FAIR      86  41  20 SE14G23   29.98F

$$
WYZ014>020-022>026-101>103-240300-
CENTRAL WYOMING

CITY           SKY/WX    TMP DP  RH WIND       PRES   REMARKS
BIG PINEY      FAIR      75  38  26 NW5       30.21S
PINEDALE       FAIR      77  34  20 N7        30.22S
DUBOIS         FAIR      77  28  16 W9        30.20S
LANDER         FAIR      86  29  12 W10       30.05S
RIVERTON       FAIR      87  27  11 NW10      30.03S
CASPER         FAIR      86  36  16 E9        29.99F
DOUGLAS        FAIR      88  40  18 SE13      30.01F

$$
WYZ021-027>030-104>119-240300-
SOUTHERN WYOMING

CITY           SKY/WX    TMP DP  RH WIND       PRES   REMARKS
EVANSTON       FAIR      77  39  25 SW10      30.22F
KEMMERER         N/A     75  32  20 NW5       30.23S
FORT BRIDGER   FAIR      78  36  21 SW10      30.24S
ROCK SPRINGS   FAIR      81  26  13 W8        30.18S
RAWLINS        FAIR      82  24  12 SW6       30.15S
SARATOGA       FAIR      79  34  19 CALM      30.17F
LARAMIE        FAIR      73  46  38 SE10      30.22S
CHEYENNE       FAIR      81  41  24 S9        30.15S
TORRINGTON     FAIR      85  49  28 E13       29.98S
PINE BLUFFS    FAIR      84  37  18 S14G20    30.09S

$$




USA.gov is the U.S. government's official web portal to all federal, state and local government web resources and services.